Change the Weather History Date:

Thursday, October 20, 2011

  Actual Average Record
Temperature  
Mean Temperature 67 °F -  
Max Temperature 77 °F 68 °F 86 °F (2014)
Min Temperature 57 °F 53 °F 46 °F (1998)
Cooling Degree Days 2    
Growing Degree Days 17 (Base 50)    
Moisture  
Dew Point 55 °F    
Average Humidity 63    
Maximum Humidity 88    
Minimum Humidity 35    
Precipitation  
Precipitation 0.00 in 0.15 in - ()
Sea Level Pressure  
Sea Level Pressure 30.05 in    
Wind  
Wind Speed 8 mph ()    
Max Wind Speed 20 mph    
Max Gust Speed -    
Visibility 5.3 miles    
Events      
Averages and records for this station are not official NWS values.
T = Trace of Precipitation, MM = Missing Value Source: Averaged Metar Reports

Daily Weather History Graph

Daily Weather History Graph

Search for Another Location

Airport or City:

Trip Planner

Search our weather history database for the weather conditions in past years. The results will help you decide how hot, cold, wet, or windy it might be!

Date:

Astronomy

Oct. 20, 2011 Rise Set
Actual Time 6:34 AM WET 5:42 PM WET
Civil Twilight 6:08 AM WET 6:08 PM WET
Nautical Twilight 5:38 AM WET 6:37 PM WET
Astronomical Twilight 5:08 AM WET 7:07 PM WET
Moon No Moon Rise 1:29 PM WET (10/20)
Length of Visible Light 11h 59m
Length of Day
11h 08m
Last Quarter, 46% of the Moon is Illuminated
Oct 20
Last Quarter
Oct 26
New
Nov 2
First Quarter
Nov 10
Full
Nov 18
Last Quarter

Hourly Weather History & Observations

Time (WET) Temp. Dew Point Humidity Pressure Visibility Wind Dir Wind Speed Gust Speed Precip Events Conditions
12:00 AM 66.2 °F 55.4 °F 68% 30.06 in 6.2 mi ENE 9.2 mph - N/A   Unknown
12:30 AM 64.4 °F 55.4 °F 73% 30.06 in 5.0 mi East 4.6 mph - N/A   Unknown
1:00 AM 62.6 °F 55.4 °F 77% 30.06 in 5.0 mi East 6.9 mph - N/A   Unknown
1:30 AM 60.8 °F 53.6 °F 77% 30.06 in 5.0 mi East 9.2 mph - N/A   Unknown
2:00 AM 62.6 °F 55.4 °F 77% 30.06 in 3.7 mi East 10.4 mph - N/A   Unknown
2:30 AM 62.6 °F 53.6 °F 72% 30.06 in 4.3 mi ESE 10.4 mph - N/A   Unknown
3:00 AM 62.6 °F 55.4 °F 77% 30.06 in - ESE 11.5 mph - N/A   Unknown
3:30 AM 60.8 °F 53.6 °F 77% 30.04 in 3.7 mi East 10.4 mph - N/A   Unknown
4:00 AM 60.8 °F 53.6 °F 77% 30.06 in 3.7 mi ESE 4.6 mph - N/A   Unknown
4:30 AM 59.0 °F 53.6 °F 82% 30.06 in 3.1 mi ESE 3.5 mph - N/A   Unknown
5:00 AM 57.2 °F 51.8 °F 82% 30.06 in 3.7 mi Variable 1.2 mph - N/A   Unknown
5:30 AM 59.0 °F 53.6 °F 82% 30.06 in - SSE 2.3 mph - N/A   Unknown
6:00 AM 59.0 °F 53.6 °F 82% 30.06 in - SE 4.6 mph - N/A   Unknown
6:30 AM 57.2 °F 53.6 °F 88% 30.06 in 2.2 mi Variable 2.3 mph - N/A   Unknown
7:00 AM 59.0 °F 53.6 °F 82% 30.06 in 1.7 mi SE 5.8 mph - N/A   Unknown
7:30 AM 59.0 °F 55.4 °F 88% 30.06 in - Calm Calm - N/A   Clear
8:00 AM 62.6 °F 55.4 °F 77% 30.09 in - Variable 1.2 mph - N/A   Clear
8:30 AM 66.2 °F 57.2 °F 73% 30.09 in - Calm Calm - N/A   Unknown
9:00 AM 69 °F 55 °F 51% 30.11 in 3 mi West 2.3 mph - -  
9:00 AM 68.0 °F 55.4 °F 64% 30.09 in 6.2 mi Variable 2.3 mph - N/A   Unknown
9:30 AM 71.6 °F 55.4 °F 57% 30.09 in 6.2 mi West 4.6 mph - N/A   Unknown
10:00 AM 71.6 °F 57.2 °F 60% 30.09 in 6.2 mi West 8.1 mph - N/A   Unknown
10:30 AM 69.8 °F 57.2 °F 64% 30.09 in 6.2 mi West 6.9 mph - N/A   Unknown
11:00 AM 71.6 °F 59.0 °F 64% 30.09 in - WNW 6.9 mph - N/A   Unknown
11:30 AM 71.6 °F 57.2 °F 60% 30.09 in 6.2 mi West 9.2 mph - N/A   Unknown
12:00 PM 71.6 °F 57.2 °F 60% 30.09 in 6.2 mi WNW 8.1 mph - N/A   Unknown
12:30 PM 75.2 °F 55.4 °F 50% 30.06 in 6.2 mi NW 4.6 mph - N/A   Unknown
1:00 PM 71.6 °F 57.2 °F 60% 30.06 in 6.2 mi NW 6.9 mph - N/A   Unknown
1:30 PM 73.4 °F 55.4 °F 53% 30.04 in 6.2 mi NNW 9.2 mph - N/A   Unknown
2:00 PM 73.4 °F 55.4 °F 53% 30.04 in 6.2 mi NNW 11.5 mph - N/A   Unknown
2:30 PM 77.0 °F 53.6 °F 44% 30.04 in 6.2 mi NE 10.4 mph - N/A   Unknown
3:00 PM 77 °F 54 °F 35% 30.03 in 3 mi NE 10.4 mph - -  
3:00 PM 77.0 °F 53.6 °F 44% 30.01 in 6.2 mi NE 9.2 mph - N/A   Unknown
3:30 PM 75.2 °F 53.6 °F 47% 30.01 in 6.2 mi ENE 18.4 mph - N/A   Unknown
4:00 PM 73.4 °F 59.0 °F 61% 30.01 in 4.3 mi ENE 17.3 mph - N/A   Unknown
4:30 PM 71.6 °F 59.0 °F 64% 30.01 in 3.1 mi ENE 15.0 mph - N/A   Unknown
5:00 PM 71.6 °F 59.0 °F 64% 30.01 in 3.1 mi ENE 12.7 mph - N/A   Unknown
5:30 PM 71.6 °F 55.4 °F 57% 30.01 in 6.2 mi East 16.1 mph - N/A   Unknown
6:00 PM 71.6 °F 53.6 °F 53% 30.01 in 6.2 mi East 16.1 mph - N/A   Unknown
6:30 PM 69.8 °F 53.6 °F 56% 30.01 in 6.2 mi East 15.0 mph - N/A   Unknown
7:00 PM 69.8 °F 51.8 °F 53% 30.01 in 6.2 mi East 18.4 mph - N/A   Unknown
7:30 PM 69.8 °F 51.8 °F 53% 30.01 in 6.2 mi East 17.3 mph - N/A   Unknown
8:00 PM 69.8 °F 50.0 °F 49% 30.01 in 6.2 mi East 18.4 mph - N/A   Unknown
8:30 PM 69.8 °F 50.0 °F 49% 30.01 in 6.2 mi East 19.6 mph - N/A   Unknown
9:00 PM 69 °F 51 °F 43% 30.02 in 6 mi East 18.4 mph - -  
9:00 PM 69.8 °F 50.0 °F 49% 30.01 in 6.2 mi East 18.4 mph - N/A   Unknown
9:30 PM 69.8 °F 51.8 °F 53% 30.01 in 6.2 mi East 16.1 mph - N/A   Unknown
10:00 PM 69.8 °F 55.4 °F 60% 30.01 in 6.2 mi East 18.4 mph - N/A   Unknown
10:30 PM 68.0 °F 55.4 °F 64% 30.01 in 6.2 mi East 18.4 mph - N/A   Unknown
11:00 PM 68.0 °F 53.6 °F 60% 30.01 in 6.2 mi East 19.6 mph - N/A   Unknown
11:30 PM 68.0 °F 53.6 °F 60% 30.01 in 6.2 mi East 17.3 mph - N/A   Unknown